Date;Temperature;Relative_humidity;Par
2019-05-20 09:10:00 UTC;13.75169;99.19107;44.54559
2019-05-20 09:20:00 UTC;13.70822;99.51823;56.6497
2019-05-20 09:30:00 UTC;13.80257;99.49345;56.12519
2019-05-20 09:40:00 UTC;13.62477;99.61464;61.08757
2019-05-20 09:50:00 UTC;13.77728;99.75215;61.42903
2019-05-20 10:00:00 UTC;13.62211;99.9069;61.22668
2019-05-20 10:10:00 UTC;13.73526;99.76369;80.07696
2019-05-20 10:20:00 UTC;14.0254;99.73661;148.4564
2019-05-20 10:30:00 UTC;14.02234;100.0631;209.7288
2019-05-20 10:40:00 UTC;14.0981;100.0431;241.4768
2019-05-20 10:50:00 UTC;14.2267;99.45366;235.9613
2019-05-20 11:00:00 UTC;14.22868;98.98775;220.4563
2019-05-20 11:10:00 UTC;14.34754;98.54652;204.7474
2019-05-20 11:20:00 UTC;14.72703;98.21455;245.9773
2019-05-20 11:30:00 UTC;14.75428;98.34169;298.3447
2019-05-20 11:40:00 UTC;14.71283;98.61657;412.3951
2019-05-20 11:50:00 UTC;14.72785;98.89255;450.2471
2019-05-20 12:00:00 UTC;14.84822;97.92036;437.846
2019-05-20 12:10:00 UTC;14.91435;97.9203;393.3759
2019-05-20 12:20:00 UTC;15.17792;96.02831;296.7192
2019-05-20 12:30:00 UTC;15.18154;95.3484;372.9135
2019-05-20 12:40:00 UTC;15.32318;94.8257;301.0779
2019-05-20 12:50:00 UTC;15.50716;93.26847;237.8059
2019-05-20 13:00:00 UTC;15.57092;93.56728;178.3792
2019-05-20 13:10:00 UTC;15.43454;93.1927;229.4285
2019-05-20 13:20:00 UTC;15.44109;94.08266;244.641
2019-05-20 13:30:00 UTC;15.4919;95.54791;197.049
2019-05-20 13:40:00 UTC;15.57159;96.45864;191.7317
2019-05-20 13:50:00 UTC;15.49187;97.01326;254.9102
2019-05-20 14:00:00 UTC;15.50544;97.37282;357.7087
2019-05-20 14:10:00 UTC;15.42064;97.34908;289.8491
2019-05-20 14:20:00 UTC;15.49018;96.56889;328.3328
2019-05-20 14:30:00 UTC;15.69709;95.21882;223.4312
2019-05-20 14:40:00 UTC;15.74289;94.86943;248.5669
2019-05-20 14:50:00 UTC;15.8684;95.92947;429.8763
2019-05-20 15:00:00 UTC;15.86331;96.07872;270.8786
2019-05-20 15:10:00 UTC;15.93624;95.47493;199.805
2019-05-20 15:20:00 UTC;16.05327;94.76597;373.9485
2019-05-20 15:30:00 UTC;16.19574;93.59569;297.1591
2019-05-20 15:40:00 UTC;16.18387;93.56007;422.2185
2019-05-20 15:50:00 UTC;16.3399;92.69846;397.1592
2019-05-20 16:00:00 UTC;16.49085;91.47051;325.3054
2019-05-20 16:10:00 UTC;16.54513;93.3752;314.7813
2019-05-20 16:20:00 UTC;16.65028;92.4237;432.2677
2019-05-20 16:30:00 UTC;16.91826;91.48069;478.8163
2019-05-20 16:40:00 UTC;16.93353;93.54989;507.0727
2019-05-20 16:50:00 UTC;16.95049;93.97729;484.1758
2019-05-20 17:00:00 UTC;17.22152;93.65437;286.6419
2019-05-20 17:10:00 UTC;16.66142;93.93849;146.4529
2019-05-20 17:20:00 UTC;15.68487;96.33749;64.76373
2019-05-20 17:30:00 UTC;15.0847;98.5157;144.267
2019-05-20 17:40:00 UTC;14.69807;98.8924;257.0809
2019-05-20 17:50:00 UTC;14.24355;99.92027;294.174
2019-05-20 18:00:00 UTC;14.57089;100.3816;364.3232
2019-05-20 18:10:00 UTC;14.5658;101.3043;406.4789
2019-05-20 18:20:00 UTC;14.6882;101.7289;360.0768
2019-05-20 18:30:00 UTC;14.6382;101.1038;288.3659
2019-05-20 18:40:00 UTC;14.68232;100.8634;289.6751
2019-05-20 18:50:00 UTC;14.56038;100.8134;273.8863
2019-05-20 19:00:00 UTC;14.56113;101.263;257.7672
2019-05-20 19:10:00 UTC;14.61057;101.4009;281.3054
2019-05-20 19:20:00 UTC;14.33753;101.2365;255.5553
2019-05-20 19:30:00 UTC;14.41898;101.5046;250.3307
2019-05-20 19:40:00 UTC;14.5513;101.7693;227.0059
2019-05-20 19:50:00 UTC;14.52925;101.8303;206.7599
2019-05-20 20:00:00 UTC;14.60728;102.0424;217.0059
2019-05-20 20:10:00 UTC;14.49702;101.771;218.3375
2019-05-20 20:20:00 UTC;14.54622;101.7727;205.8608
2019-05-20 20:30:00 UTC;14.69549;101.7879;168.0407
2019-05-20 20:40:00 UTC;14.63612;101.871;156.8108
2019-05-20 20:50:00 UTC;14.74339;102.1892;149.2209
2019-05-20 21:00:00 UTC;14.68362;102.277;131.8116
2019-05-20 21:10:00 UTC;14.77977;102.4488;81.24056
2019-05-20 21:20:00 UTC;14.7201;102.4837;57.49905
2019-05-20 21:30:00 UTC;14.73071;102.6713;15.22519
2019-05-20 21:40:00 UTC;14.72784;102.3875;22.82535
2019-05-20 21:50:00 UTC;14.69157;102.2469;29.11015
2019-05-20 22:00:00 UTC;14.63928;102.1684;23.48766
2019-05-20 22:10:00 UTC;14.66609;102.3542;21.55351
2019-05-20 22:20:00 UTC;14.65789;102.4651;15.84504
2019-05-20 22:30:00 UTC;14.48859;102.5745;9.669966
2019-05-20 22:40:00 UTC;14.51098;102.4723;6.88803
2019-05-20 22:50:00 UTC;14.57603;102.5534;5.250935
2019-05-20 23:00:00 UTC;14.38495;102.4768;3.664672
2019-05-20 23:10:00 UTC;14.49243;102.675;3.825901
2019-05-20 23:20:00 UTC;14.32465;102.7161;3.630803
2019-05-20 23:30:00 UTC;14.3824;102.9114;4.326431
2019-05-20 23:40:00 UTC;14.35696;102.9386;3.707159
2019-05-20 23:50:00 UTC;14.09398;102.5907;2.324397
2019-05-21 00:00:00 UTC;14.04308;102.494;0.9925345
2019-05-21 00:10:00 UTC;13.99558;102.6688;0.2714624
2019-05-21 00:20:00 UTC;13.91075;102.8385;0.06786561
2019-05-21 00:30:00 UTC;14.05326;102.9708;0.03393281
2019-05-21 00:40:00 UTC;13.96334;103.1269;0.0169664
2019-05-21 00:50:00 UTC;13.85136;102.6179;0
2019-05-21 09:10:00 UTC;13.27111;103.3288;4.572445
2019-05-21 09:20:00 UTC;13.19476;103.2372;6.150321
2019-05-21 09:30:00 UTC;12.96402;103.0794;7.600948
2019-05-21 09:40:00 UTC;13.11502;102.9436;15.88904
2019-05-21 09:50:00 UTC;12.88089;102.8944;31.90532
2019-05-21 10:00:00 UTC;12.89955;102.8843;54.83541
2019-05-21 10:10:00 UTC;12.95384;102.8469;55.52255
2019-05-21 10:20:00 UTC;12.93518;102.9097;78.14725
2019-05-21 10:30:00 UTC;12.82999;102.7553;65.12553
2019-05-21 10:40:00 UTC;12.74346;102.7248;72.29384
2019-05-21 10:50:00 UTC;12.81641;102.7859;121.4879
2019-05-21 11:00:00 UTC;12.81811;102.7926;102.1886
2019-05-21 11:10:00 UTC;12.8707;103.0828;147.6331
2019-05-21 11:20:00 UTC;12.80793;102.9216;124.7455
2019-05-21 11:30:00 UTC;12.70953;102.6688;146.4031
2019-05-21 11:40:00 UTC;12.83168;102.6824;164.0057
2019-05-21 11:50:00 UTC;12.58737;102.8317;140.0492
2019-05-21 12:00:00 UTC;12.86562;102.813;222.6925
2019-05-21 12:10:00 UTC;12.73497;102.9674;299.6182
2019-05-21 12:20:00 UTC;12.84017;103.0132;297.438
2019-05-21 12:30:00 UTC;12.77739;102.7214;270.6311
2019-05-21 12:40:00 UTC;12.8741;102.7112;278.3508
2019-05-21 12:50:00 UTC;12.88089;102.5331;298.965
2019-05-21 13:00:00 UTC;12.86392;102.4686;242.9674
2019-05-21 13:10:00 UTC;12.77909;102.4771;165.5582
2019-05-21 13:20:00 UTC;12.80284;102.399;188.6664
2019-05-21 13:30:00 UTC;12.64505;102.3532;247.2853
2019-05-21 13:40:00 UTC;12.6705;102.5687;349.3721
2019-05-21 13:50:00 UTC;12.7197;102.4262;382.6857
2019-05-21 14:00:00 UTC;12.84017;102.7299;367.6789
2019-05-21 14:10:00 UTC;12.66372;102.3566;328.3932
2019-05-21 14:20:00 UTC;12.7231;102.1683;379.513
2019-05-21 14:30:00 UTC;12.81641;102.3583;354.6996
2019-05-21 14:40:00 UTC;12.74346;102.5958;367.7468
2019-05-21 14:50:00 UTC;12.88597;102.6416;330.9382
2019-05-21 15:00:00 UTC;12.69595;102.5924;329.0718
2019-05-21 15:10:00 UTC;12.91482;102.6077;329.0718
2019-05-21 15:20:00 UTC;12.8758;102.5415;380.7769
2019-05-21 15:30:00 UTC;12.90464;102.8571;315.5327
2019-05-21 15:40:00 UTC;12.96402;102.7943;300.721
2019-05-21 15:50:00 UTC;13.05903;102.7366;297.1581
2019-05-21 16:00:00 UTC;13.04207;102.5721;343.0267
2019-05-21 16:10:00 UTC;13.03698;102.7808;325.7804
2019-05-21 16:20:00 UTC;13.03528;102.5585;357.7196
2019-05-21 16:30:00 UTC;13.02849;102.5907;371.7508
2019-05-21 16:40:00 UTC;12.98777;102.5856;386.0789
2019-05-21 16:50:00 UTC;13.15744;102.7926;555.446
2019-05-21 17:00:00 UTC;13.20155;102.6976;395.2154
2019-05-21 17:10:00 UTC;13.10145;102.5721;509.8319
2019-05-21 17:20:00 UTC;13.35934;102.7859;520.4783
2019-05-21 17:30:00 UTC;13.29996;102.6399;525.2458
2019-05-21 17:40:00 UTC;13.29826;102.7061;518.7308
2019-05-21 17:50:00 UTC;13.35594;102.416;433.1437
2019-05-21 18:00:00 UTC;13.25075;102.4262;357.1682
2019-05-21 18:10:00 UTC;13.50355;102.4499;398.2099
2019-05-21 18:20:00 UTC;13.5799;102.5941;314.7607
2019-05-21 18:30:00 UTC;13.50016;102.6332;310.8499
2019-05-21 18:40:00 UTC;13.43229;102.813;332.1003
2019-05-21 18:50:00 UTC;13.50525;102.718;321.9035
2019-05-21 19:00:00 UTC;13.50186;102.9114;246.1825
2019-05-21 19:10:00 UTC;13.40175;102.6348;198.456
2019-05-21 19:20:00 UTC;13.34407;102.6671;200.3223
2019-05-21 19:30:00 UTC;13.38309;102.8707;197.8028
2019-05-21 19:40:00 UTC;13.43738;102.8096;178.0624
2019-05-21 19:50:00 UTC;13.24906;102.6908;150.6786
2019-05-21 20:00:00 UTC;13.4289;102.83;123.0234
2019-05-21 20:10:00 UTC;13.2796;102.947;108.8649
2019-05-21 20:20:00 UTC;13.43229;103.0013;84.71324
2019-05-21 20:30:00 UTC;13.42042;103.2083;74.90666
2019-05-21 20:40:00 UTC;13.33219;103.193;105.2511
2019-05-21 20:50:00 UTC;13.4781;103.1693;85.85847
2019-05-21 21:00:00 UTC;13.46283;103.1761;73.71053
2019-05-21 21:10:00 UTC;13.40854;103.1506;58.97521
2019-05-21 21:20:00 UTC;13.19646;103.0997;46.02985
2019-05-21 21:30:00 UTC;13.07261;103.1235;50.246
2019-05-21 21:40:00 UTC;13.40175;102.9335;49.5928
2019-05-21 21:50:00 UTC;13.2796;102.8605;40.10857
2019-05-21 22:00:00 UTC;13.11502;102.7825;36.0027
2019-05-21 22:10:00 UTC;13.31523;103.0437;44.14658
2019-05-21 22:20:00 UTC;13.24227;102.8181;40.17644
2019-05-21 22:30:00 UTC;13.17101;102.886;34.78112
2019-05-21 22:40:00 UTC;13.11163;102.9776;29.36884
2019-05-21 22:50:00 UTC;13.08788;103.1761;22.20054
2019-05-21 23:00:00 UTC;13.18628;102.7451;14.06515
2019-05-21 23:10:00 UTC;13.06582;102.9674;8.898878
2019-05-21 23:20:00 UTC;13.15744;102.6688;6.871393
2019-05-21 23:30:00 UTC;13.00135;102.6824;4.216151
2019-05-21 23:40:00 UTC;13.09805;102.8401;2.80794
2019-05-21 23:50:00 UTC;12.96911;102.7044;1.306413
2019-05-22 00:00:00 UTC;13.00644;102.9335;1.001018
2019-05-22 00:10:00 UTC;12.86222;102.9589;0.3223616
2019-05-22 00:20:00 UTC;12.8232;102.9216;0.09331521
2019-05-22 00:30:00 UTC;12.83168;103.0285;0.0254496
2019-05-22 00:40:00 UTC;12.91991;103.0946;0.0254496
2019-05-22 00:50:00 UTC;12.80114;103.0336;0.0169664
2019-05-22 09:10:00 UTC;12.46521;103.249;8.551066
2019-05-22 09:20:00 UTC;12.34814;103.3695;15.41398
2019-05-22 09:30:00 UTC;12.3176;103.1167;22.5229
2019-05-22 09:40:00 UTC;12.47539;103.2881;24.5419
2019-05-22 09:50:00 UTC;12.32948;103.2881;28.71563
2019-05-22 10:00:00 UTC;12.50253;103.3949;32.99965
2019-05-22 10:10:00 UTC;12.32269;103.1981;24.4401
2019-05-22 10:20:00 UTC;12.3702;103.3135;25.8059
2019-05-22 10:30:00 UTC;12.50423;103.2898;35.79063
2019-05-22 10:40:00 UTC;12.25313;103.3033;46.2589
2019-05-22 10:50:00 UTC;12.32099;103.1286;60.97725
2019-05-22 11:00:00 UTC;12.48557;103.322;64.27721
2019-05-22 11:10:00 UTC;12.35662;103.4255;64.21783
2019-05-22 11:20:00 UTC;12.47878;103.3423;78.8259
2019-05-22 11:30:00 UTC;12.39225;103.1591;81.87986
2019-05-22 11:40:00 UTC;12.43128;103.2083;69.45197
2019-05-22 11:50:00 UTC;12.38716;103.2694;55.84491
2019-05-22 12:00:00 UTC;12.50593;103.3457;79.77602
2019-05-22 12:10:00 UTC;12.32948;103.1455;155.2171
2019-05-22 12:20:00 UTC;12.49914;103.3678;182.1004
2019-05-22 12:30:00 UTC;12.62639;103.3423;309.7471
2019-05-22 12:40:00 UTC;12.79945;103.4425;412.6992
2019-05-22 12:50:00 UTC;12.83338;103.5137;353.987
2019-05-22 13:00:00 UTC;12.87919;103.2372;250.5938
2019-05-22 13:10:00 UTC;12.91482;103.0047;357.5669
2019-05-22 13:20:00 UTC;13.02001;102.7825;141.644
2019-05-22 13:30:00 UTC;12.7706;102.4007;196.4964
2019-05-22 13:40:00 UTC;12.50762;102.2718;275.5938
2019-05-22 13:50:00 UTC;12.91821;102.8452;172.3532
2019-05-22 14:00:00 UTC;12.86222;102.5839;433.1607
2019-05-22 14:10:00 UTC;13.00813;102.5907;293.3067
2019-05-22 14:20:00 UTC;12.81302;102.0325;242.5092
2019-05-22 14:30:00 UTC;12.81811;101.9274;204.6063
2019-05-22 14:40:00 UTC;12.96063;102.1835;126.9596
2019-05-22 14:50:00 UTC;12.80963;102.2294;98.28636
2019-05-22 15:00:00 UTC;12.8215;102.4109;128.037
2019-05-22 15:10:00 UTC;12.91651;102.3668;198.1761
2019-05-22 15:20:00 UTC;12.88428;102.4533;223.0064
2019-05-22 15:30:00 UTC;12.86392;102.5093;170.8856
2019-05-22 15:40:00 UTC;12.84865;102.7265;231.0315
2019-05-22 15:50:00 UTC;12.92839;102.5941;198.8208
2019-05-22 16:00:00 UTC;12.98438;102.3973;212.852
2019-05-22 16:10:00 UTC;12.98099;102.3871;211.6983
2019-05-22 16:20:00 UTC;13.16253;102.5381;270.9704
2019-05-22 16:30:00 UTC;13.05733;102.5653;331.2859
2019-05-22 16:40:00 UTC;13.29487;102.6535;155.7601
2019-05-22 16:50:00 UTC;13.25075;102.6654;152.3753
2019-05-22 17:00:00 UTC;13.24397;102.5873;148.0403
2019-05-22 17:10:00 UTC;13.33728;102.3956;137.5636
2019-05-22 17:20:00 UTC;13.21003;102.3973;103.775
2019-05-22 17:30:00 UTC;13.19816;102.3922;115.889
2019-05-22 17:40:00 UTC;13.31013;102.6077;101.8154
2019-05-22 17:50:00 UTC;13.11672;102.5755;100.9416
2019-05-22 18:00:00 UTC;13.13708;102.4313;122.4211
2019-05-22 18:10:00 UTC;13.16083;102.2277;113.9039
2019-05-22 18:20:00 UTC;13.09805;102.3329;197.4465
2019-05-22 18:30:00 UTC;13.06582;102.2853;206.0739
2019-05-22 18:40:00 UTC;13.32201;102.304;342.9589
2019-05-22 18:50:00 UTC;13.33389;102.6145;474.1346
2019-05-22 19:00:00 UTC;13.61214;102.1581;502.2479
2019-05-22 19:10:00 UTC;13.61892;101.8883;289.6758
2019-05-22 19:20:00 UTC;13.75466;101.3064;376.0773
2019-05-22 19:30:00 UTC;13.65795;99.96604;325.5937
2019-05-22 19:40:00 UTC;13.79537;100.6345;327.5618
2019-05-22 19:50:00 UTC;13.79368;99.9355;332.2276
2019-05-22 20:00:00 UTC;14.04308;99.88121;273.8716
2019-05-22 20:10:00 UTC;13.87003;99.78111;237.7926
2019-05-22 20:20:00 UTC;13.91923;100.0916;203.0285
2019-05-22 20:30:00 UTC;13.79877;100.3563;274.2873
2019-05-22 20:40:00 UTC;13.73429;100.173;297.2005
2019-05-22 20:50:00 UTC;13.87172;99.84219;386.325
2019-05-22 21:00:00 UTC;13.86324;99.60635;223.5323
2019-05-22 21:10:00 UTC;13.92262;99.83201;159.8999
2019-05-22 21:20:00 UTC;13.84596;99.9806;86.25661
2019-05-22 21:30:00 UTC;13.87145;99.99934;68.25539
2019-05-22 21:40:00 UTC;13.82406;100.1218;72.49721
2019-05-22 21:50:00 UTC;13.71109;100.3129;164.0607
2019-05-22 22:00:00 UTC;13.49778;101.1792;260.2945
2019-05-22 22:10:00 UTC;13.68976;101.9043;255.8763
2019-05-22 22:20:00 UTC;13.63547;101.7754;231.2582
2019-05-22 22:30:00 UTC;13.65945;101.4111;168.7556
2019-05-22 22:40:00 UTC;13.63651;101.5228;138.3238
2019-05-22 22:50:00 UTC;13.5493;101.947;110.3365
2019-05-22 23:00:00 UTC;13.54231;102.0212;87.59364
2019-05-22 23:10:00 UTC;13.5504;101.3569;72.46807
2019-05-22 23:20:00 UTC;13.31743;101.1809;67.07221
2019-05-22 23:30:00 UTC;13.13819;101.3383;51.99075
2019-05-22 23:40:00 UTC;13.16767;101.1566;29.02844
2019-05-22 23:50:00 UTC;13.07798;101.3658;15.2862
2019-05-23 00:00:00 UTC;13.07887;101.3849;6.922204
2019-05-23 00:10:00 UTC;12.8871;101.1998;2.494024
2019-05-23 00:20:00 UTC;12.86544;101.121;0.7125855
2019-05-23 00:30:00 UTC;12.58902;100.9992;0.1272478
2019-05-23 00:40:00 UTC;12.34304;101.0417;0.02544959
2019-05-23 00:50:00 UTC;12.33966;101.2691;0
2019-05-23 09:10:00 UTC;7.254083;103.1868;92.9697
2019-05-23 09:20:00 UTC;7.442934;103.081;110.738
2019-05-23 09:30:00 UTC;7.604352;102.7061;156.1627
2019-05-23 09:40:00 UTC;7.427824;102.0797;208.0135
2019-05-23 09:50:00 UTC;7.643458;102.5738;250.713
2019-05-23 10:00:00 UTC;7.68081;102.6502;301.545
2019-05-23 10:10:00 UTC;8.032253;103.3922;356.9694
2019-05-23 10:20:00 UTC;8.461795;103.6502;406.9524
2019-05-23 10:30:00 UTC;8.627995;103.9723;465.6003
2019-05-23 10:40:00 UTC;9.010767;104.0395;522.8286
2019-05-23 10:50:00 UTC;9.284503;104.3925;575.8727
2019-05-23 11:00:00 UTC;9.745755;104.5022;630.2653
2019-05-23 11:10:00 UTC;10.13981;104.208;686.9481
2019-05-23 11:20:00 UTC;10.49379;104.4436;743.928
2019-05-23 11:30:00 UTC;10.81467;104.661;797.0013
2019-05-23 11:40:00 UTC;11.2444;104.6489;854.8644
2019-05-23 11:50:00 UTC;11.65853;104.3279;913.0453
2019-05-23 12:00:00 UTC;11.84216;103.3045;969.2451
2019-05-23 12:10:00 UTC;11.83152;101.1903;1019.659
2019-05-23 12:20:00 UTC;11.83647;99.63528;1067.636
2019-05-23 12:30:00 UTC;12.13513;99.22105;1120.002
2019-05-23 12:40:00 UTC;12.29561;98.45048;1159.442
2019-05-23 12:50:00 UTC;12.40519;97.77057;921.3936
2019-05-23 13:00:00 UTC;12.85973;93.33987;1379.651
2019-05-23 13:10:00 UTC;13.1945;93.58131;1392.691
2019-05-23 13:20:00 UTC;13.53119;82.11153;490.8264
2019-05-23 13:30:00 UTC;13.59535;81.5714;706.6454
2019-05-23 13:40:00 UTC;13.44424;85.00011;1453.599
2019-05-23 13:50:00 UTC;13.79711;82.22604;1542.578
2019-05-23 14:00:00 UTC;14.4571;75.75674;1555.15
2019-05-23 14:10:00 UTC;14.87108;72.66885;1599.288
2019-05-23 14:20:00 UTC;15.26801;70.79054;1581.165
2019-05-23 14:30:00 UTC;15.1569;65.94636;1620.089
2019-05-23 14:40:00 UTC;15.29951;66.63878;1663.705
2019-05-23 14:50:00 UTC;15.46772;69.60535;1694.704
2019-05-23 15:00:00 UTC;15.86455;65.71633;1570.576
2019-05-23 15:10:00 UTC;15.70309;65.46587;1385.159
2019-05-23 15:20:00 UTC;15.66774;65.22968;1385.392
2019-05-23 15:30:00 UTC;15.92096;68.21656;1646.284
2019-05-23 15:40:00 UTC;16.11077;65.66368;1798.695
2019-05-23 15:50:00 UTC;16.61354;64.01368;1848.055
2019-05-23 16:00:00 UTC;16.79463;65.56336;1847.786
2019-05-23 16:10:00 UTC;16.64186;65.00857;673.6101
2019-05-23 16:20:00 UTC;16.32465;65.02208;1474.967
2019-05-23 16:30:00 UTC;16.35856;64.1011;615.7396
2019-05-23 16:40:00 UTC;16.55361;62.22186;1627.29
2019-05-23 16:50:00 UTC;16.88095;61.3857;1604.113
2019-05-23 17:00:00 UTC;17.1591;56.3874;1642.393
2019-05-23 17:10:00 UTC;17.35076;59.69472;1599.042
2019-05-23 17:20:00 UTC;17.35415;62.74425;1619.276
2019-05-23 17:30:00 UTC;17.40503;59.8745;1565.002
2019-05-23 17:40:00 UTC;17.78326;58.59398;1541.461
2019-05-23 17:50:00 UTC;17.51528;59.88468;1510.109
2019-05-23 18:00:00 UTC;17.60517;58.30564;1487.644
2019-05-23 18:10:00 UTC;17.64079;57.29479;1473.949
2019-05-23 18:20:00 UTC;17.96821;59.3484;1424.478
2019-05-23 18:30:00 UTC;17.99008;61.21675;1406.292
2019-05-23 18:40:00 UTC;17.93317;56.331;1391.851
2019-05-23 18:50:00 UTC;18.06396;58.19465;1346.556
2019-05-23 19:00:00 UTC;17.88518;57.93905;1309.064
2019-05-23 19:10:00 UTC;17.88765;62.36652;1264.109
2019-05-23 19:20:00 UTC;18.06108;54.96379;1197.322
2019-05-23 19:30:00 UTC;18.21643;55.80234;1171.381
2019-05-23 19:40:00 UTC;17.84774;60.7405;962.9158
2019-05-23 19:50:00 UTC;17.75076;61.84047;525.4486
2019-05-23 20:00:00 UTC;17.84885;61.08056;380.6838
2019-05-23 20:10:00 UTC;17.90112;59.71533;192.2522
2019-05-23 20:20:00 UTC;17.9875;57.51955;181.07
2019-05-23 20:30:00 UTC;17.86031;60.46288;490.5901
2019-05-23 20:40:00 UTC;17.62124;59.81182;578.0435
2019-05-23 20:50:00 UTC;17.62972;60.82911;703.2131
2019-05-23 21:00:00 UTC;17.67719;56.34454;709.0117
2019-05-23 21:10:00 UTC;17.60598;60.50866;642.5485
2019-05-23 21:20:00 UTC;17.71788;57.0736;601.6701
2019-05-23 21:30:00 UTC;17.69754;56.54121;536.7413
2019-05-23 21:40:00 UTC;17.37208;56.2056;450.1873
2019-05-23 21:50:00 UTC;17.62436;55.40859;375.0706
2019-05-23 22:00:00 UTC;17.64727;54.97189;275.5633
2019-05-23 22:10:00 UTC;17.70959;55.64622;279.4772
2019-05-23 22:20:00 UTC;17.48735;56.70913;225.882
2019-05-23 22:30:00 UTC;17.59929;58.15374;264.0816
2019-05-23 22:40:00 UTC;17.52508;58.70527;227.2914
2019-05-23 22:50:00 UTC;17.44676;59.11346;129.1205
2019-05-23 23:00:00 UTC;17.18215;59.43208;111.343
2019-05-23 23:10:00 UTC;17.13115;61.06857;84.0652
2019-05-23 23:20:00 UTC;16.76722;66.28664;67.60237
2019-05-23 23:30:00 UTC;16.13744;72.27013;53.30979
2019-05-23 23:40:00 UTC;16.03908;77.5034;36.9668
2019-05-23 23:50:00 UTC;15.46204;80.19111;21.93564
2019-05-24 00:00:00 UTC;15.12228;81.78181;10.2604
2019-05-24 00:10:00 UTC;14.54102;83.98888;3.536203
2019-05-24 00:20:00 UTC;14.13297;87.58583;0.9328278
2019-05-24 00:30:00 UTC;13.76686;87.98656;0.2035273
2019-05-24 00:40:00 UTC;13.41245;88.48365;0.03392126
2019-05-24 00:50:00 UTC;13.14619;89.49117;0
2019-05-24 09:10:00 UTC;7.414693;97.02765;84.31504
2019-05-24 09:20:00 UTC;7.49108;96.66438;83.74638
2019-05-24 09:30:00 UTC;7.501266;96.84262;159.3532
2019-05-24 09:40:00 UTC;7.555927;97.733;234.6396
2019-05-24 09:50:00 UTC;7.667399;98.11687;285.7902
2019-05-24 10:00:00 UTC;7.764249;98.03563;338.5406
2019-05-24 10:10:00 UTC;8.044466;98.25664;390.4515
2019-05-24 10:20:00 UTC;8.480757;98.32971;446.1978
2019-05-24 10:30:00 UTC;8.519602;98.65852;487.886
2019-05-24 10:40:00 UTC;8.906492;98.41203;525.1953
2019-05-24 10:50:00 UTC;9.56024;98.4567;614.6224
2019-05-24 11:00:00 UTC;9.972803;97.6217;633.3724
2019-05-24 11:10:00 UTC;10.45662;96.83073;727.1598
2019-05-24 11:20:00 UTC;11.01963;95.78378;789.5576
2019-05-24 11:30:00 UTC;11.62407;95.20766;838.4393
2019-05-24 11:40:00 UTC;12.06488;92.85368;857.8713
2019-05-24 11:50:00 UTC;12.72778;90.93932;856.2952
2019-05-24 12:00:00 UTC;13.02287;86.76196;1023.654
2019-05-24 12:10:00 UTC;13.72439;81.88211;1078.31
2019-05-24 12:20:00 UTC;14.19404;78.68483;1112.699
2019-05-24 12:30:00 UTC;14.52351;80.59027;1141.246
2019-05-24 12:40:00 UTC;15.07078;80.39917;1222.938
2019-05-24 12:50:00 UTC;15.41269;81.00174;1216.562
2019-05-24 13:00:00 UTC;15.74836;77.19569;1227.184
2019-05-24 13:10:00 UTC;16.41675;76.24541;1254.811
2019-05-24 13:20:00 UTC;16.81377;76.57687;1300.573
2019-05-24 13:30:00 UTC;16.8542;76.38429;1353.91
2019-05-24 13:40:00 UTC;17.23313;73.22537;1446.186
2019-05-24 13:50:00 UTC;17.39194;69.21284;1509.618
2019-05-24 14:00:00 UTC;17.69068;63.75605;1531.332
2019-05-24 14:10:00 UTC;18.13287;62.1153;1568.91
2019-05-24 14:20:00 UTC;18.64492;61.0364;1605.108
2019-05-24 14:30:00 UTC;18.58601;62.15203;1623.386
2019-05-24 14:40:00 UTC;18.88855;60.32607;1648.689
2019-05-24 14:50:00 UTC;19.17963;55.03439;1667.962
2019-05-24 15:00:00 UTC;19.3394;56.664;1687.128
2019-05-24 15:10:00 UTC;19.26606;58.66589;1720.37
2019-05-24 15:20:00 UTC;19.49651;59.47109;1752.147
2019-05-24 15:30:00 UTC;19.85591;56.73452;1747.407
2019-05-24 15:40:00 UTC;19.86437;56.68533;1734.877
2019-05-24 15:50:00 UTC;20.16787;55.66294;1761.877
2019-05-24 16:00:00 UTC;20.20686;55.57478;1770.77
2019-05-24 16:10:00 UTC;20.38489;55.54087;1780.036
2019-05-24 16:20:00 UTC;20.44762;54.39133;1395.567
2019-05-24 16:30:00 UTC;20.35946;53.69957;1538.556
2019-05-24 16:40:00 UTC;20.52222;54.51171;1779.409
2019-05-24 16:50:00 UTC;20.83419;53.49442;1820.473
2019-05-24 17:00:00 UTC;20.84098;51.54969;1266.904
2019-05-24 17:10:00 UTC;20.74185;51.14028;1748.82
2019-05-24 17:10:00 UTC;20.74185;51.14028;1748.82
2019-05-24 17:20:00 UTC;20.81341;52.72753;1362.6
2019-05-24 17:30:00 UTC;20.87352;53.97095;1490.068
2019-05-24 17:40:00 UTC;20.75143;52.41286;883.5042
2019-05-24 17:50:00 UTC;20.59643;57.07229;614.2132
2019-05-24 18:00:00 UTC;20.22424;50.47682;1301.037
2019-05-24 18:10:00 UTC;20.48329;52.52941;1613.439
2019-05-24 18:20:00 UTC;20.88157;52.29706;617.4191
2019-05-24 18:30:00 UTC;20.75779;54.44316;592.516
2019-05-24 18:40:00 UTC;20.37976;53.68201;780.9633
2019-05-24 18:50:00 UTC;20.24414;57.32331;809.9343
2019-05-24 19:00:00 UTC;20.06819;56.98298;1327.574
2019-05-24 19:10:00 UTC;20.08171;60.21401;1325.335
2019-05-24 19:20:00 UTC;20.42616;56.48829;1198.948
2019-05-24 19:30:00 UTC;20.68436;54.66311;1033.352
2019-05-24 19:40:00 UTC;20.73464;58.41908;994.6901
2019-05-24 19:50:00 UTC;20.59692;55.0638;761.556
2019-05-24 20:00:00 UTC;20.80869;51.43422;803.1881
2019-05-24 20:10:00 UTC;20.88154;58.45231;984.9048
2019-05-24 20:20:00 UTC;20.66277;59.33372;981.8177
2019-05-24 20:30:00 UTC;20.64198;56.51749;939.9634
2019-05-24 20:40:00 UTC;20.58469;55.84488;475.6723
2019-05-24 20:50:00 UTC;20.41867;56.24338;751.2792
2019-05-24 21:00:00 UTC;20.6679;52.33259;696.8044
2019-05-24 21:10:00 UTC;20.56958;56.74859;690.9729
2019-05-24 21:20:00 UTC;20.3758;52.5202;591.9415
2019-05-24 21:30:00 UTC;20.34561;51.04234;525.7479
2019-05-24 21:40:00 UTC;20.53392;53.04451;460.1282
2019-05-24 21:50:00 UTC;20.48166;54.48914;311.7749
2019-05-24 22:00:00 UTC;20.16824;54.89111;291.9334
2019-05-24 22:10:00 UTC;20.26459;52.56329;249.6447
2019-05-24 22:20:00 UTC;20.32383;52.78866;218.961
2019-05-24 22:30:00 UTC;20.17294;53.12429;192.1428
2019-05-24 22:40:00 UTC;20.21228;53.94515;181.9899